Find Starlink 30784

NORAD ID: 58156 Int'l Des: 2023-166 Owner: SPXS Country: US Constellation: starlink operational
LEOCIRCULAR

現在のビュー

3D地球を読み込み中...

About Starlink 30784

Starlink 30784 (NORAD 58156) is a starlink constellation satellite (v2 mini) launched Oct 29, 2023 by SPXS of US. It operates in LEO, CIRCULAR orbit with a mass of 730.00 kg.

Starlink 30784について

説明を読み込み中...

次回通過

Passes for default location (London). Set your location on the main map for personalized predictions.

高度履歴

Loading altitude history...

軌道要素

1 58156U 23166G 26169.26757283 -.00000608 00000-0 -84106-5 0 9997
2 58156 53.1590 112.7529 0001008 79.9097 280.2017 15.30204689148424
Epoch: Jun 18, 2026 • Age: 22 hours

現在のステータス

高度 475.1 km
速度 7.63 km/s
衛星直下点 9.47°N, 141.94°E
打ち上げ日 Oct 29, 2023
運用期間 2.6 years
タイプ internet

技術仕様

分類 Payload
質量 730.00 kg
乾燥質量 700.00 kg
総質量 730.00 kg
長さ 0.30 m
直径 4.10 m
スパン 29.00 m
形状 Box + pan
製造者 SPXS
バスタイプ Starlink V2M
フェーズステータス In Orbit
所有者/国 SPXS/US

Most Searched